EW7906 Weather Reports


time (UTC)temp
F
wind
direction
speed
knots
gust
knots
rain 1hr
in
rain 24hr
in
rain mn
in
humidity
%
barometer
mb
20260508124758 95 43 0.0 3.5 0.00 0.00 0.00 100 1013.1
20260508124527 95 29 0.0 0.0 0.00 0.00 0.00 100 1013.3
20260508123750 95 29 0.0 0.0 0.00 0.00 0.00 100 1013.2
20260508123240 95 29 0.0 0.0 0.00 0.00 0.00 100 1013.2
20260508122734 95 29 0.0 0.0 0.00 0.00 0.00 100 1013.2
20260508122232 95 29 0.0 0.0 0.00 0.00 0.00 100 1013.2
20260508121712 95 29 0.0 1.7 0.00 0.00 0.00 100 1013.3
20260508121211 95 29 0.0 5.2 0.00 0.00 0.00 100 1013.4
20260508120659 94 47 0.0 5.2 0.00 0.00 0.00 100 1013.4
20260508120200 94 88 0.0 0.0 0.00 0.00 0.00 100 1013.6
20260508115650 94 88 0.0 4.3 0.00 0.00 0.00 100 1013.6
20260508115128 95 88 0.0 7.0 0.00 0.00 0.00 100 1013.6
20260508114604 94 77 2.6 7.0 0.00 0.00 0.00 100 1013.8
20260508114100 95 348 0.0 3.5 0.00 0.00 0.00 100 1014.0
20260508113558 95 348 0.0 4.3 0.00 0.00 0.00 100 1014.0
20260508113058 95 36 0.0 4.3 0.00 0.00 0.00 100 1013.8
20260508112552 94 334 0.0 4.3 0.00 0.00 0.00 100 1013.8
20260508112044 94 12 0.0 2.6 0.00 0.00 0.00 100 1013.8
20260508111543 95 4 0.9 2.6 0.00 0.00 0.00 100 1013.9
20260508111042 95 15 0.0 0.0 0.00 0.00 0.00 100 1013.9
20260508110542 94 15 0.0 0.0 0.00 0.00 0.00 100 1013.6
20260508110041 94 15 0.0 4.3 0.00 0.00 0.00 100 1013.4
20260508105759 94 15 0.0 5.2 0.00 0.00 0.00 100 1013.3
20260508105025 94 29 1.7 5.2 0.00 0.00 0.00 100 1013.3
20260508104519 94 16 0.0 3.5 0.00 0.00 0.00 100 1013.2
20260508104012 94 28 0.0 5.2 0.00 0.00 0.00 100 1013.2
20260508103512 94 310 0.0 7.0 0.00 0.00 0.00 100 1013.3
20260508103009 94 2 1.7 7.8 0.00 0.00 0.00 100 1013.4
20260508102504 94 45 2.6 7.8 0.00 0.00 0.00 100 1013.3
20260508102231 94 309 0.0 5.2 0.00 0.00 0.00 100 1013.4
20260508101731 94 327 1.7 5.2 0.00 0.00 0.00 100 1013.6
20260508100958 94 331 0.0 4.3 0.00 0.00 0.00 100 1013.8
20260508100445 94 358 3.5 4.3 0.00 0.00 0.00 100 1013.9
20260508095944 95 336 0.0 4.3 0.00 0.00 0.00 100 1014.0
20260508095440 94 307 0.0 4.3 0.00 0.00 0.00 100 1013.9
20260508094921 94 7 0.0 2.6 0.00 0.00 0.00 100 1013.8
20260508094412 94 35 0.0 0.0 0.00 0.00 0.00 100 1013.9
20260508093902 94 35 0.0 0.0 0.00 0.00 0.00 100 1014.0
20260508093358 94 35 0.0 0.0 0.00 0.00 0.00 100 1014.1
20260508092846 94 35 0.0 0.0 0.00 0.00 0.00 100 1014.0
20260508092332 94 35 0.0 0.0 0.00 0.00 0.00 100 1013.8
20260508091816 94 35 0.0 0.0 0.00 0.00 0.00 100 1013.6
20260508091317 94 35 0.0 0.0 0.00 0.00 0.00 100 1013.8
20260508090807 94 35 0.0 0.0 0.00 0.00 0.00 100 1013.5
20260508090244 95 35 0.0 0.0 0.00 0.00 0.00 100 1013.5
20260508085738 95 35 0.0 0.0 0.00 0.00 0.00 100 1013.5
20260508085229 94 35 0.0 3.5 0.00 0.00 0.00 100 1013.5
20260508084723 95 35 0.0 3.5 0.00 0.00 0.00 100 1013.4
20260508084219 94 74 0.0 0.0 0.00 0.00 0.00 100 1013.3
20260508083718 94 74 0.0 0.0 0.00 0.00 0.00 100 1013.4
20260508083441 95 74 0.0 0.0 0.00 0.00 0.00 100 1013.5
20260508082646 95 74 0.0 0.0 0.00 0.00 0.00 100 1013.6
20260508082126 95 74 0.0 0.0 0.00 0.00 0.00 100 1013.6
20260508081839 95 74 0.0 0.0 0.00 0.00 0.00 100 1013.8
20260508081106 95 74 0.0 0.0 0.00 0.00 0.00 100 1013.6
20260508080654 95 74 0.0 0.0 0.00 0.00 0.00 100 1013.6
20260508075545 94 74 0.0 2.6 0.00 0.00 0.00 100 1013.6
20260508075043 94 74 0.0 4.3 0.00 0.00 0.00 100 1013.5
20260508074544 95 60 0.0 4.3 0.00 0.00 0.00 100 1013.5
20260508074028 95 80 0.0 5.2 0.00 0.00 0.00 100 1013.5
20260508073517 95 97 2.6 5.2 0.00 0.00 0.00 100 1013.3
20260508072956 95 40 1.7 4.3 0.00 0.00 0.00 100 1013.2
20260508072448 95 43 0.0 5.2 0.00 0.00 0.00 100 1013.4
20260508071944 95 22 0.9 5.2 0.00 0.00 0.00 100 1013.8
20260508071444 94 57 0.0 4.3 0.00 0.00 0.00 100 1013.5
20260508070943 94 39 0.0 6.1 0.00 0.00 0.00 100 1013.4
20260508070714 94 32 0.0 6.1 0.00 0.00 0.00 100 1013.3
20260508070214 94 336 0.9 2.6 0.00 0.00 0.00 100 1013.6
20260508065444 94 123 0.0 1.7 0.00 0.00 0.00 100 1014.1
20260508065145 94 123 0.0 4.3 0.00 0.00 0.00 100 1014.3
20260508064405 94 123 0.9 4.3 0.00 0.00 0.00 100 1014.0
20260508063904 94 11 0.0 1.7 0.00 0.00 0.00 100 1014.1
20260508063345 94 11 0.0 0.0 0.00 0.00 0.00 100 1014.2
20260508063112 94 11 0.0 0.0 0.00 0.00 0.00 100 1014.3
20260508062331 94 11 0.0 0.0 0.00 0.00 0.00 100 1014.7
20260508061822 94 11 0.0 0.0 0.00 0.00 0.00 100 1014.8
20260508061323 94 11 0.0 0.0 0.00 0.00 0.00 100 1014.6
20260508060800 94 11 0.0 0.0 0.00 0.00 0.00 100 1014.5
20260508060739 94 11 0.0 0.0 0.00 0.00 0.00 100 1014.5
20260508055714 94 11 0.0 0.0 0.00 0.00 0.00 100 1014.2
20260508055203 94 11 0.0 0.0 0.00 0.00 0.00 100 1014.1
20260508054659 94 11 0.0 0.0 0.00 0.00 0.00 100 1014.2
20260508054649 94 11 0.0 0.0 0.00 0.00 0.00 100 1014.4
20260508053645 94 11 0.0 0.0 0.00 0.00 0.00 100 1014.6
20260508053140 95 11 0.0 0.0 0.00 0.00 0.00 100 1014.8
20260508052632 95 11 0.0 0.0 0.00 0.00 0.00 100 1014.7
20260508052343 94 11 0.0 0.0 0.00 0.00 0.00 100 1014.6
20260508051607 94 11 0.0 0.0 0.00 0.00 0.00 100 1014.3
20260508051102 94 11 0.0 0.0 0.00 0.00 0.00 100 1014.3
20260508050546 94 11 0.0 0.0 0.00 0.00 0.00 100 1014.2
20260508050033 94 11 0.0 0.0 0.00 0.00 0.00 100 1014.0
20260508045531 94 11 0.0 1.7 0.00 0.00 0.00 100 1014.4
20260508045014 94 11 0.0 4.3 0.00 0.00 0.00 100 1014.8
20260508044506 94 11 0.0 4.3 0.00 0.00 0.00 100 1014.9
20260508044006 94 106 0.0 2.6 0.00 0.00 0.00 100 1015.3
20260508043459 94 106 0.0 0.0 0.00 0.00 0.00 100 1014.5
20260508043224 94 106 0.0 0.0 0.00 0.00 0.00 100 1014.1
20260508042430 94 106 0.0 0.0 0.00 0.00 0.00 100 1014.1
20260508041926 94 106 0.0 0.0 0.00 0.00 0.00 100 1013.9
20260508041412 94 106 0.0 0.0 0.00 0.00 0.00 100 1014.3
20260508040908 94 106 0.0 0.0 0.00 0.00 0.00 100 1015.0
20260508040403 94 106 0.0 0.0 0.00 0.00 0.00 100 1015.0
20260508035858 94 106 0.0 0.0 0.00 0.00 0.00 100 1014.9
20260508035351 94 106 0.0 0.0 0.00 0.00 0.00 100 1014.7
20260508035346 94 106 0.0 0.0 0.00 0.00 0.00 100 1014.8
20260508034333 94 106 0.0 0.0 0.00 0.00 0.00 100 1015.1
20260508033818 94 106 0.0 0.0 0.00 0.00 0.00 100 1015.3
20260508033309 94 106 0.0 0.0 0.00 0.00 0.00 100 1015.3
20260508032758 94 106 0.0 0.0 0.00 0.00 0.00 100 1015.4
20260508032259 95 106 0.0 0.0 0.00 0.00 0.00 100 1015.8
20260508031749 95 106 0.0 0.0 0.00 0.00 0.00 100 1015.8
20260508031520 95 106 0.0 0.0 0.00 0.00 0.00 100 1015.6
20260508030744 95 106 0.0 0.0 0.00 0.00 0.00 100 1015.4
20260508030244 95 106 0.0 0.0 0.00 0.00 0.00 100 1015.2
20260508025731 95 106 0.0 0.0 0.00 0.00 0.00 100 1014.9
20260508025230 95 106 0.0 0.0 0.00 0.00 0.00 100 1014.8
20260508024719 95 106 0.0 0.0 0.00 0.00 0.00 100 1014.5
20260508024218 95 106 0.0 3.5 0.00 0.00 0.00 100 1014.3
20260508023926 95 106 0.0 6.1 0.00 0.00 0.00 100 1014.3
20260508023150 95 106 3.5 6.1 0.00 0.00 0.00 100 1014.0
20260508022650 95 81 2.6 6.1 0.00 0.00 0.00 100 1013.8
20260508022151 95 137 0.0 6.1 0.00 0.00 0.00 100 1013.3
20260508021643 95 64 0.9 5.2 0.00 0.00 0.00 100 1013.0
20260508021140 95 113 0.9 5.2 0.00 0.00 0.00 100 1013.0
20260508020631 95 126 0.0 8.7 0.00 0.00 0.00 100 1013.1
20260508020118 95 77 1.7 8.7 0.00 0.00 0.00 100 1013.3
20260508015615 95 36 0.0 5.2 0.00 0.00 0.00 100 1013.4
20260508015112 95 108 0.0 6.1 0.00 0.00 0.00 100 1013.4
20260508014613 95 125 0.9 6.1 0.00 0.00 0.00 100 1013.4
20260508014113 95 50 0.9 5.2 0.00 0.00 0.00 100 1013.2
20260508013611 95 50 0.0 5.2 0.00 0.00 0.00 100 1013.1
20260508013113 95 59 0.9 4.3 0.00 0.00 0.00 100 1013.3
20260508013109 95 87 0.0 4.3 0.00 0.00 0.00 100 1013.1
20260508012059 95 115 2.6 4.3 0.00 0.00 0.00 100 1013.4
20260508011552 95 142 3.5 7.8 0.00 0.00 0.00 100 1013.2
20260508011050 95 326 4.3 7.8 0.00 0.00 0.00 100 1013.2
20260508010551 96 43 4.3 7.8 0.00 0.00 0.00 100 1013.9
20260508010323 95 91 1.7 6.1 0.00 0.00 0.00 100 1013.9
20260508005551 95 358 0.9 8.7 0.00 0.00 0.00 100 1013.3
20260508005050 96 22 2.6 8.7 0.00 0.00 0.00 100 1013.9
20260508004547 96 309 2.6 7.8 0.00 0.00 0.00 100 1013.8
20260508004047 96 129 3.5 6.1 0.00 0.00 0.00 100 1013.6
20260508003543 96 9 0.0 9.6 0.00 0.00 0.00 100 1013.9
20260508003045 96 23 0.9 9.6 0.00 0.00 0.00 100 1013.9
20260508002543 96 343 1.7 6.1 0.00 0.00 0.00 100 1013.8
20260508002043 96 322 0.9 6.1 0.00 0.00 0.00 100 1014.0
20260508001543 96 150 3.5 6.1 0.00 0.00 0.00 100 1014.1
20260508001043 97 343 1.7 5.2 0.00 0.00 0.00 100 1014.6
20260508000545 97 75 1.7 4.3 0.00 0.00 0.00 100 1014.5
20260508000042 97 33 0.0 0.9 0.00 0.00 0.00 100 1014.5
20260507235755 96 33 0.0 2.6 0.00 0.00 0.00 100 1014.5
20260507235026 97 33 0.0 3.5 0.00 0.00 0.00 100 1014.9
20260507234520 97 7 0.0 3.5 0.00 0.00 0.00 100 1015.1
20260507234005 96 73 0.0 4.3 0.00 0.00 0.00 100 1014.8
20260507233506 97 59 0.0 4.3 0.00 0.00 0.00 100 1014.8
20260507232958 97 35 0.0 3.5 0.00 0.00 0.00 100 1014.8
20260507232445 97 320 0.0 3.5 0.00 0.00 0.00 100 1015.0
20260507231944 97 320 0.0 4.3 0.00 0.00 0.00 100 1015.1
20260507231436 97 33 0.0 5.2 0.00 0.00 0.00 100 1014.8
20260507230925 97 82 3.5 5.2 0.00 0.00 0.00 100 1014.7
20260507230413 97 334 1.7 5.2 0.00 0.00 0.00 100 1014.7
20260507225912 97 28 0.0 5.2 0.00 0.00 0.00 100 1015.0
20260507225408 97 46 2.6 7.8 0.00 0.00 0.00 100 1014.9
20260507224906 97 68 5.2 7.8 0.00 0.00 0.00 100 1014.9
20260507224406 97 18 0.0 8.7 0.00 0.00 0.00 100 1014.8
20260507223853 97 19 2.6 8.7 0.00 0.00 0.00 100 1014.8
20260507223347 97 59 0.0 5.2 0.00 0.00 0.00 100 1015.1
20260507222845 97 292 0.0 5.2 0.00 0.00 0.00 100 1015.2
20260507222345 97 303 2.6 9.6 0.00 0.00 0.00 100 1015.3
20260507221843 97 29 0.0 9.6 0.00 0.00 0.00 100 1015.3
20260507221343 97 357 1.7 8.7 0.00 0.00 0.00 100 1015.2
20260507220843 97 1 4.3 9.6 0.00 0.00 0.00 100 1015.3
20260507220347 97 333 6.1 9.6 0.00 0.00 0.00 100 1015.2
20260507220343 97 358 5.2 9.6 0.00 0.00 0.00 100 1015.3
20260507215347 97 5 3.5 11.3 0.00 0.00 0.00 100 1015.3
20260507215343 97 15 1.7 7.0 0.00 0.00 0.00 100 1015.3
20260507214328 97 1 5.2 11.3 0.00 0.00 0.00 100 1015.7
20260507213826 97 338 2.6 7.8 0.00 0.00 0.00 100 1015.8
20260507213327 98 8 0.0 11.3 0.00 0.00 0.00 100 1015.8
20260507212827 98 310 1.7 11.3 0.00 0.00 0.00 100 1015.9
20260507212327 98 49 1.7 7.0 0.00 0.00 0.00 100 1015.7
20260507211826 97 309 3.5 7.0 0.00 0.00 0.00 100 1015.6
20260507211326 97 56 4.3 7.0 0.00 0.00 0.00 100 1015.3
20260507211057 97 334 1.7 7.8 0.00 0.00 0.00 100 1015.3
20260507210324 97 123 3.5 7.8 0.00 0.00 0.00 100 1015.2
20260507205821 97 7 4.3 7.0 0.00 0.00 0.00 100 1015.6
20260507205321 96 18 3.5 6.1 0.00 0.00 0.00 100 1015.6
20260507204821 96 11 3.5 6.1 0.00 0.00 0.00 100 1015.7
20260507204312 96 358 0.9 6.1 0.00 0.00 0.00 100 1015.9
20260507204033 97 64 0.0 7.0 0.00 0.00 0.00 100 1016.1
20260507203302 97 270 2.6 7.0 0.00 0.00 0.00 100 1016.1
20260507202803 96 317 0.9 6.1 0.00 0.00 0.00 100 1016.2
20260507202532 96 358 0.9 8.7 0.00 0.00 0.00 100 1016.4
20260507201759 96 347 1.7 8.7 0.00 0.00 0.00 100 1016.3
20260507201530 96 43 0.0 6.1 0.00 0.00 0.00 100 1016.5
20260507200759 97 333 0.0 6.1 0.00 0.00 0.00 100 1016.5
20260507200259 97 26 0.9 6.1 0.00 0.00 0.00 100 1016.4
20260507195750 97 90 2.6 7.8 0.00 0.00 0.00 100 1016.5
20260507195251 96 74 3.5 7.8 0.00 0.00 0.00 100 1016.3
20260507194750 96 334 4.3 7.8 0.00 0.00 0.00 100 1016.3
20260507194250 96 78 1.7 9.6 0.00 0.00 0.00 100 1016.4
20260507193749 96 344 3.5 9.6 0.00 0.00 0.00 100 1016.6
20260507193521 96 70 5.2 8.7 0.00 0.00 0.00 100 1016.8
20260507192752 96 60 4.3 8.7 0.00 0.00 0.00 100 1017.1
20260507192251 96 327 3.5 9.6 0.00 0.00 0.00 100 1017.0
20260507192247 96 21 2.6 9.6 0.00 0.00 0.00 100 1017.0
20260507191514 96 50 3.5 12.2 0.00 0.00 0.00 100 1016.9
20260507190743 96 116 2.6 12.2 0.00 0.00 0.00 100 1017.1
20260507190504 95 36 5.2 7.8 0.00 0.00 0.00 100 1017.0
20260507185734 95 91 3.5 8.7 0.00 0.00 0.00 100 1017.0
20260507185230 95 133 3.5 8.7 0.00 0.00 0.00 100 1017.0
20260507184729 95 185 3.5 10.4 0.00 0.00 0.00 100 1016.9
20260507184222 95 112 6.1 10.4 0.00 0.00 0.00 100 1016.7
20260507183716 96 78 3.5 9.6 0.00 0.00 0.00 100 1016.9
20260507183215 96 98 5.2 9.6 0.00 0.00 0.00 100 1016.8
20260507182947 96 309 2.6 7.8 0.00 0.00 0.00 100 1017.5
20260507182441 95 28 3.5 9.6 0.00 0.00 0.00 100 1017.0
20260507181710 95 330 3.5 11.3 0.00 0.00 0.00 100 1017.1
20260507181442 95 351 3.5 11.3 0.00 0.00 0.00 100 1016.9
20260507180704 95 14 4.3 9.6 0.00 0.00 0.00 100 1017.5
20260507180203 95 70 3.5 8.7 0.00 0.00 0.00 100 1017.1
20260507175935 95 358 5.2 8.7 0.00 0.00 0.00 100 1017.0
20260507175202 95 4 4.3 11.3 0.00 0.00 0.00 100 1017.1
20260507174702 95 81 4.3 11.3 0.00 0.00 0.00 100 1017.1
20260507174202 95 21 6.1 10.4 0.00 0.00 0.00 100 1017.1
20260507173702 95 25 1.7 11.3 0.00 0.00 0.00 100 1017.1
20260507173202 95 87 4.3 11.3 0.00 0.00 0.00 100 1017.6
20260507172659 94 28 1.7 9.6 0.00 0.00 0.00 100 1017.6
20260507172158 94 80 5.2 9.6 0.00 0.00 0.00 100 1017.7
20260507171658 94 33 3.5 9.6 0.00 0.00 0.00 100 1017.3
20260507171158 94 139 3.5 8.7 0.00 0.00 0.00 100 1016.9
20260507170658 93 9 5.2 8.7 0.00 0.00 0.00 100 1016.9
20260507170157 93 84 1.7 9.6 0.00 0.00 0.00 100 1016.8
20260507165648 93 358 0.0 9.6 0.00 0.00 0.00 100 1016.8
20260507165414 93 26 3.5 11.3 0.00 0.00 0.00 100 1017.5
20260507164643 93 323 6.1 11.3 0.00 0.00 0.00 100 1017.7
20260507164143 92 22 3.5 9.6 0.00 0.00 0.00 100 1017.1
20260507163643 93 74 1.7 11.3 0.00 0.00 0.00 100 1017.7
20260507163133 92 317 4.3 11.3 0.00 0.00 0.00 100 1017.2
20260507162632 92 43 4.3 9.6 0.00 0.00 0.00 100 1018.1
20260507162130 93 56 1.7 7.8 0.00 0.00 0.00 100 1018.0
20260507161629 93 45 0.9 7.8 0.00 0.00 0.00 100 1018.3
20260507161129 93 334 4.3 7.8 0.00 0.00 0.00 100 1019.0
20260507160629 93 310 0.0 8.7 0.00 0.00 0.00 100 1019.0
20260507160113 93 5 3.5 9.6 0.00 0.00 0.00 100 1018.9
20260507155614 92 74 1.7 9.6 0.00 0.00 0.00 100 1018.8
20260507155342 92 42 0.0 9.6 0.00 0.00 0.00 100 1018.2
20260507154842 92 94 3.5 7.8 0.00 0.00 0.00 100 1018.0
20260507154111 93 99 2.6 10.4 0.00 0.00 0.00 100 1018.2
20260507153612 93 120 5.2 10.4 0.00 0.00 0.00 100 1018.2
20260507153112 93 357 5.2 9.6 0.00 0.00 0.00 100 1018.6
20260507152612 93 358 3.5 8.7 0.00 0.00 0.00 100 1018.3
20260507152110 93 57 2.6 8.7 0.00 0.00 0.00 100 1018.0
20260507151610 93 4 5.2 8.7 0.00 0.00 0.00 100 1018.0
20260507151110 93 347 5.2 9.6 0.00 0.00 0.00 100 1018.2
20260507150609 92 333 6.1 9.6 0.00 0.00 0.00 100 1018.3
20260507150108 92 358 1.7 8.7 0.00 0.00 0.00 100 1018.3
20260507145608 93 310 3.5 7.8 0.00 0.00 0.00 100 1018.3
20260507145108 92 14 2.6 8.7 0.00 0.00 0.00 100 1018.6
20260507144609 93 305 0.9 8.7 0.00 0.00 0.00 100 1018.6
20260507144108 92 330 0.9 7.0 0.00 0.00 0.00 100 1018.6
20260507143103 93 5 3.5 8.7 0.00 0.00 0.00 100 1018.3
20260507142603 93 307 3.5 12.2 0.00 0.00 0.00 100 1018.0
20260507142103 93 333 2.6 12.2 0.00 0.00 0.00 100 1017.7
20260507141543 93 306 3.5 9.6 0.00 0.00 0.00 100 1017.8
20260507141315 93 8 0.0 8.7 0.00 0.00 0.00 100 1018.0
20260507140543 93 56 2.6 9.6 0.00 0.00 0.00 100 1018.0
20260507140043 93 358 7.0 12.2 0.00 0.00 0.00 100 1018.0
20260507135814 93 108 1.7 12.2 0.00 0.00 0.00 100 1017.8
20260507135025 93 354 1.7 9.6 0.00 0.00 0.00 100 1017.6
20260507134523 93 358 5.2 9.6 0.00 0.00 0.00 100 1017.6
20260507134013 93 333 3.5 11.3 0.00 0.00 0.00 100 1017.2
20260507133505 92 358 5.2 11.3 0.00 0.00 0.00 100 1017.2
20260507133002 93 319 3.5 10.4 0.00 0.00 0.00 100 1017.1
20260507132500 93 57 4.3 13.0 0.00 0.00 0.00 100 1017.2
20260507131948 93 7 5.2 11.3 0.00 0.00 0.00 100 1017.2
20260507131944 93 12 7.0 13.0 0.00 0.00 0.00 100 1017.2
20260507130944 92 327 6.1 9.6 0.00 0.00 0.00 100 1017.1
20260507130444 92 35 3.5 9.6 0.00 0.00 0.00 100 1017.1
20260507125943 92 307 5.2 9.6 0.00 0.00 0.00 100 1017.2
20260507125444 92 26 1.7 9.6 0.00 0.00 0.00 100 1017.3